Total_Precipitation_Accumulation
0.46 0.53 0.72 0.70 0.53 0.48 0.48 0.49 0.51 0.45 0.41 0.43 0.43 0.42 0.38 0.33 0.30 0.29 0.31 0.33 0.34 0.41 0.49 0.56 0.59 0.61 0.70 0.76 0.84 0.89 0.94 1.01 1.16 1.39 1.58 1.62 1.63 1.66 1.85 1.93 1.90 1.49 1.40
0.23 0.33 0.57 0.60 0.48 0.45 0.45 0.45 0.45 0.41 0.39 0.37 0.42 0.46 0.45 0.42 0.35 0.34 0.35 0.37 0.43 0.47 0.47 0.48 0.55 0.53 0.61 0.68 0.75 0.80 0.89 1.03 1.46 1.80 1.97 1.88 1.85 1.88 1.97 1.92 1.87 1.48 1.32
0.14 0.17 0.31 0.47 0.44 0.42 0.39 0.40 0.41 0.38 0.37 0.34 0.35 0.39 0.41 0.42 0.37 0.35 0.39 0.42 0.49 0.50 0.46 0.52 0.57 0.55 0.59 0.66 0.74 0.74 0.90 1.21 1.78 2.37 2.53 2.10 1.72 1.91 1.97 1.90 1.70 1.33 1.13
0.12 0.13 0.17 0.32 0.37 0.36 0.34 0.35 0.36 0.33 0.29 0.28 0.29 0.33 0.37 0.42 0.40 0.37 0.39 0.43 0.49 0.47 0.48 0.56 0.54 0.58 0.56 0.59 0.67 0.85 1.08 1.31 1.79 2.26 2.39 1.74 1.39 1.43 1.62 1.47 1.31 1.13 0.92
0.16 0.14 0.19 0.25 0.26 0.29 0.31 0.32 0.34 0.33 0.30 0.26 0.26 0.31 0.35 0.40 0.40 0.39 0.44 0.46 0.50 0.52 0.51 0.52 0.54 0.60 0.60 0.57 0.69 0.93 1.22 1.50 1.80 2.03 1.74 1.95 1.84 1.47 1.35 1.21 1.17 0.97 0.75
0.17 0.14 0.19 0.25 0.22 0.23 0.25 0.28 0.32 0.32 0.30 0.29 0.30 0.33 0.34 0.38 0.42 0.41 0.41 0.45 0.52 0.56 0.58 0.59 0.60 0.61 0.60 0.58 0.69 0.95 1.25 1.63 1.78 1.32 1.05 1.42 1.42 1.31 1.23 1.18 1.07 0.89 0.72
0.22 0.15 0.18 0.28 0.25 0.23 0.25 0.30 0.32 0.29 0.27 0.27 0.30 0.34 0.37 0.40 0.42 0.42 0.44 0.48 0.52 0.57 0.56 0.60 0.59 0.58 0.62 0.65 0.70 0.91 1.30 1.67 1.56 1.03 0.86 1.12 1.07 1.11 1.19 1.19 1.10 0.91 0.73
0.31 0.21 0.23 0.33 0.34 0.31 0.31 0.34 0.34 0.29 0.28 0.28 0.30 0.35 0.39 0.41 0.42 0.48 0.52 0.55 0.53 0.57 0.57 0.54 0.55 0.53 0.55 0.68 0.80 0.91 1.20 1.35 1.09 0.90 0.81 0.90 0.76 1.03 1.17 1.08 1.00 0.90 0.79
0.59 0.47 0.38 0.37 0.37 0.36 0.41 0.42 0.39 0.34 0.33 0.33 0.37 0.36 0.38 0.39 0.43 0.48 0.60 0.63 0.57 0.59 0.59 0.56 0.55 0.60 0.62 0.70 0.82 0.98 1.21 1.41 1.21 1.08 0.86 0.81 0.72 1.03 1.27 1.09 0.92 0.80 0.80
1.20 0.98 0.72 0.51 0.52 0.45 0.43 0.46 0.45 0.39 0.37 0.37 0.39 0.39 0.45 0.54 0.58 0.66 0.68 0.65 0.65 0.71 0.73 0.71 0.69 0.71 0.80 0.87 0.97 1.11 1.28 1.26 1.18 1.36 1.13 0.79 0.82 1.14 1.35 1.38 1.16 0.96 0.90
1.55 1.36 1.21 0.97 0.72 0.71 0.63 0.53 0.63 0.59 0.57 0.63 0.71 0.69 0.83 1.10 1.05 1.13 0.95 0.87 0.94 1.06 1.13 1.11 1.12 1.12 1.11 1.05 1.18 1.38 1.31 1.24 1.46 1.64 1.31 0.96 1.08 1.45 1.60 1.67 1.51 1.36 1.25
1.57 1.40 1.39 1.34 1.04 0.92 0.85 1.00 1.26 1.14 1.14 1.20 1.41 1.27 1.50 1.64 1.49 1.04 1.09 1.20 1.34 1.62 1.75 1.79 1.84 1.74 1.56 1.40 1.54 1.59 1.39 1.43 1.57 1.41 1.21 1.10 1.23 1.60 1.86 1.92 1.76 1.55 1.47
1.80 1.68 1.40 1.51 1.35 1.28 1.35 1.40 1.53 1.62 1.61 1.60 1.69 1.70 1.90 1.76 1.48 1.32 1.54 1.84 2.01 2.16 2.35 2.45 2.43 2.11 2.10 2.23 2.24 2.03 1.93 1.80 1.82 1.52 1.16 1.26 1.41 1.71 1.98 2.05 1.90 1.76 1.61
2.11 1.99 1.86 1.84 1.81 1.76 1.73 1.64 1.52 1.36 1.39 1.53 1.67 1.71 1.90 1.97 1.97 1.95 2.04 2.14 2.29 2.57 2.96 2.94 2.95 2.80 2.86 2.71 2.53 2.49 2.32 2.01 2.13 2.14 1.61 1.51 1.63 1.94 2.11 2.12 2.00 1.89 1.86
2.80 2.64 2.63 2.69 2.47 2.20 2.04 1.71 1.40 1.28 1.16 1.26 1.38 1.49 1.55 1.81 2.03 2.06 1.90 1.93 1.92 2.13 2.55 3.01 3.01 3.23 3.27 2.98 2.56 2.39 2.43 2.29 2.24 2.16 1.74 1.81 2.00 2.06 2.06 2.03 2.01 1.95 1.95
3.79 3.61 3.40 3.45 2.97 2.56 2.25 1.84 1.57 1.33 1.29 1.23 1.16 1.22 1.41 1.60 1.83 1.79 1.75 1.89 1.94 1.92 2.08 2.48 2.72 3.04 3.07 2.77 2.33 2.16 2.16 2.20 2.08 2.05 1.77 1.79 1.90 1.79 1.81 2.02 2.20 2.23 2.17
4.91 4.51 3.92 3.63 3.28 2.95 2.62 2.11 1.71 1.48 1.26 1.23 1.17 1.16 1.20 1.33 1.51 1.51 1.60 1.57 1.62 1.62 1.67 1.83 2.08 2.36 2.38 2.29 2.23 2.20 2.15 2.05 1.88 1.85 1.90 1.82 1.60 1.64 1.71 1.83 2.00 2.11 2.28
5.71 5.11 4.38 3.68 3.67 3.46 3.09 2.42 1.90 1.58 1.42 1.27 1.19 1.09 1.00 1.03 1.01 1.08 1.15 1.14 1.11 1.05 1.15 1.41 1.52 1.73 1.97 2.11 2.23 2.14 2.10 2.13 1.94 1.87 1.84 1.84 1.79 1.53 1.71 1.77 1.77 1.83 2.08
5.88 5.67 5.02 4.81 4.55 3.87 3.08 2.44 1.97 1.66 1.50 1.32 1.22 1.12 1.02 0.90 0.85 0.90 0.97 1.04 0.84 0.84 0.88 0.88 1.20 1.39 1.61 1.73 1.58 1.74 1.70 1.75 1.67 1.49 1.50 1.38 1.54 1.51 1.58 1.59 1.64 1.63 1.83
4.82 4.72 4.65 4.73 4.23 3.61 2.96 2.43 2.08 1.79 1.49 1.28 1.18 1.16 1.07 0.98 0.90 0.96 0.86 0.82 0.72 0.84 0.98 1.09 1.33 1.29 1.26 1.35 1.23 1.47 1.40 1.31 1.32 1.25 1.14 1.17 1.21 1.09 1.23 1.38 1.43 1.28 1.52
3.25 3.35 3.65 3.85 3.55 3.05 2.61 2.09 1.84 1.71 1.50 1.30 1.16 1.04 1.05 0.96 1.02 1.04 0.87 1.03 0.89 0.90 0.93 0.97 1.09 1.13 1.04 1.01 1.37 1.58 1.33 1.06 1.01 0.90 0.88 1.00 1.06 1.08 1.26 1.42 1.40 1.36 1.24
2.33 2.65 3.01 3.25 3.09 2.55 2.29 2.03 1.85 1.73 1.57 1.48 1.36 1.20 1.03 0.98 0.99 0.88 1.03 0.90 0.91 1.00 1.03 1.03 1.12 1.15 1.02 0.98 1.30 1.60 1.43 1.45 1.34 0.76 0.83 0.91 0.98 1.15 1.21 1.19 1.29 1.43 1.27
2.05 2.19 2.25 2.50 2.69 2.43 2.28 2.19 2.06 1.91 1.67 1.63 1.55 1.35 1.04 0.93 0.94 0.95 0.93 0.89 1.04 0.86 1.04 1.17 1.16 1.20 1.16 1.04 1.06 1.29 1.32 1.33 1.22 1.02 0.85 0.79 0.90 1.12 1.15 1.20 1.16 1.30 1.37
1.43 1.71 1.96 2.20 2.36 2.28 2.16 1.95 1.78 1.57 1.43 1.38 1.38 1.37 1.23 1.10 0.98 0.96 0.89 0.95 1.03 0.89 1.16 0.93 0.98 1.16 1.21 1.06 0.98 0.85 0.87 1.04 1.16 1.18 1.02 0.84 0.86 0.96 1.00 0.96 1.00 1.18 1.23
0.98 1.37 1.79 2.11 2.34 2.23 1.93 1.75 1.72 1.61 1.54 1.46 1.37 1.46 1.32 1.24 1.08 0.95 0.96 1.01 0.98 0.91 1.01 1.04 1.24 1.15 1.11 1.06 1.00 0.93 0.94 0.90 0.79 0.91 1.05 1.05 1.01 0.79 0.71 0.78 0.89 1.03 1.07
0.79 1.02 1.30 1.62 1.90 1.93 1.76 1.66 1.68 1.67 1.65 1.52 1.31 1.26 1.15 1.12 1.11 1.06 1.10 1.10 1.00 0.92 0.96 1.00 1.11 1.12 1.18 1.24 1.08 0.95 0.97 0.90 0.79 0.87 0.83 0.82 0.89 0.72 0.64 0.67 0.75 0.85 0.92